Location: St. Louis
(38.6270°N, 90.1994°W)
Time: 23:22:58
(UTC-06:00)

Vanguard 1 - Pass Details

Date: 03 December 2021
Orbit: 652 x 3830 km, 34.2° (Epoch: 21 January)

Event Time Altitude Azimuth Distance (km) Brightness Sun altitude
Rises 05:38:46 0° 284° (WNW) 7,830 - -15.9°
Reaches altitude 10° 05:44:45 10° 280° (W) 6,555 - -14.7°
Exits shadow 05:47:30 15° 277° (W) 5,950 13.4 -14.2°
Maximum altitude 06:02:53 47° 215° (SW) 3,061 12.4 -11.4°
Drops below altitude 10° 06:13:29 10° 145° (SE) 3,958 14.1 -9.4°
Sets 06:16:10 0° 139° (SE) 4,616 14.8 -8.9°
